This demonstration page uses our WeatherBlox Daily Observations layout. Learn more.

Left ArrowRight Arrow

Hourly Observations for September 19, 2019

Temp ( °F °C ) Dew Point ( °F °C ) Humidity (%) Winds ( mph kmh ) Pressure ( in mb ) Visibility ( mi km ) Precip ( " mm )
12:53 am 00:53 Cloudy 72 22.2 58 14.4 61 61 E 3 6 30.10 1019 10 16 0.00 0.00
1:53 am 01:53 Cloudy 73 22.8 57 13.9 57 57 E 5 7 30.10 1019 10 16 0.00 0.00
2:53 am 02:53 Cloudy 73 22.8 56 13.3 55 55 E 5 7 30.10 1019 10 16 0.00 0.00
3:53 am 03:53 Partly Cloudy 72 22.2 56 13.3 57 57 E 3 6 30.10 1019 10 16 0.00 0.00
4:53 am 04:53 Mostly Cloudy 71 21.7 57 13.9 61 61 E 5 7 30.11 1020 10 16 0.00 0.00
5:53 am 05:53 Cloudy 72 22.2 57 13.9 59 59 E 5 7 30.12 1020 10 16 0.00 0.00
6:53 am 06:53 Partly Cloudy 71 21.7 57 13.9 61 61 E 7 11 30.14 1021 10 16 0.00 0.00
7:53 am 07:53 Partly Cloudy 70 21.1 57 13.9 64 64 E 6 9 30.16 1021 10 16 0.00 0.00
8:53 am 08:53 Cloudy 71 21.7 58 14.4 63 63 E 9 15 30.18 1022 10 16 0.00 0.00
9:53 am 09:53 Cloudy 72 22.2 57 13.9 59 59 VRB 6 9 30.19 1023 10 16 0.00 0.00
10:53 am 10:53 Cloudy 75 23.9 55 12.8 50 50 ESE 10 17 30.20 1023 10 16 0.00 0.00
11:53 am 11:53 Partly Cloudy 76 24.4 54 12.2 47 47 ESE 9 15 30.20 1023 10 16 0.00 0.00
12:53 pm 12:53 Sunny 77 25 54 12.2 45 45 SE 9 15 30.19 1022 10 16 0.00 0.00
1:53 pm 13:53 Sunny 79 26.1 54 12.2 42 42 E 8 13 30.17 1022 10 16 0.00 0.00
2:53 pm 14:53 Sunny 80 26.7 54 12.2 41 41 ESE 7 11 30.15 1021 10 16 0.00 0.00
3:53 pm 15:53 Sunny 81 27.2 55 12.8 41 41 SE 9 15 30.14 1021 10 16 0.00 0.00
4:53 pm 16:53 Sunny 81 27.2 55 12.8 41 41 E 6 9 30.13 1020 10 16 0.00 0.00
5:53 pm 17:53 Sunny 82 27.8 56 13.3 41 41 ENE 10 17 30.13 1020 10 16 0.00 0.00
6:53 pm 18:53 Sunny 80 26.7 56 13.3 44 44 ENE 9 15 30.12 1020 10 16 0.00 0.00
7:53 pm 19:53 Clear 77 25 55 12.8 47 47 E 9 15 30.14 1021 10 16 0.00 0.00
8:53 pm 20:53 Clear 75 23.9 54 12.2 48 48 E 8 13 30.16 1021 10 16 0.00 0.00
9:53 pm 21:53 Clear 73 22.8 54 12.2 51 51 ENE 7 11 30.18 1022 10 16 0.00 0.00
10:53 pm 22:53 Clear 72 22.2 54 12.2 53 53 E 7 11 30.19 1022 10 16 0.00 0.00
11:53 pm 23:53 Clear 71 21.7 54 12.2 55 55 ENE 8 13 30.20 1023 10 16 0.00 0.00

Powered by AerisWeather